SCP
0 0 0 0 0 0 0 0 0 0 0 0 0 0 0 0 0 0 0 0 0 0 0 0 0 0 0 0 0 0 0 0 0 0 0 0 0 0 0 0 0 0 0 0
0 0 0 0 0 0 0 0 0 0 0 0 0 0 0 0 0 0 0 0 0 0 0 0 0 0 0 0 0 0 0 0 0 0 0 0 0 0 0 0 0 0 0 0
0 0 0 0 0 0 0 0 0 0 0 0 0 0 0 0 0 0 0 0 0 0 0 0 0 0 0 0 0 0 0 0 0 0 0 0 0 0 0 0 0 0 0 0
0 0 0 0 0 0 0 0 0 0 0 0 0 0 0 0 0 0 0 0 0 0 0 0 0 0 0 0 0 0 0 0 0 0 0 0 0 0 0 0 0 0 0 0
0 0 0 0 0 0 0 0 0 0 0 0 0 0 0 0 0 0 0 0 0 0 0 0 0 0 0 0 0 0 0 0 0 0 0 0 0 0 0 0 0 0 0 0
0 0 0 0 0 0 0 0 0 0 0 0 0 0 0 0 0 0 0 0 0 0 0 0 0 0 0 0 0 0 0 0 0 0 0 0 0 0 0 0 0 0 0 0
0 0 0 0 0 0 0 0 0 0 0 0 0 0 0 0 0 0 0 0 0 0 0 0 0 0 0 0 0 0 0 0 0 0 0 0 0 0 0 0 0 0 0 0
0 0 0 0 0 0 0 0 0 0 0 0 0 0 0 0 0 0 0 0 0 0 0 0 0 0 0 0 0 0 0 0 0 0 0 0 0 0 0 0 0 0 0 0
0 0 0 0 0 0 0 0 0 0 0 0 0 0 0 0 0 0 0 0 0 0 0 0 0 0 0 0 0 0 0 0 0 0 0 0 0 0 0 0 0 0 0 0
0 0 0 -0 -0 0 0 0 0 0 0 0 0 0 0 0 0 0 0 0 0 0 0 0 0 0 0 0 0 0 0 0 0 0 0 0 0 0 0 0 0 0 0 0
0 0 0 0 0 0 0 0 0 0 0 0 0 0 0 0 0 0 0 0 0 0 0 0 0 0 0 0 0 0 0 0 0 0 0 0 0 0 0 0 0 0 0 0
0 0 0 0 0 0 0 0 0 0 0 0 0 0 0 0 0 0 0 0 0 0 0 0 0 0 0 0 0 0 0 0 0 0 0 0 0 0 0 0 0 0 0 0
0 0 0 0 0 0 0 0 0 0 0 0 0 0 0 0 0 0 0 0 0 0 0 0 0 0 0 0 0 0 0 0 0 0 0 0 0 0 0 0 0 0 0 0
0 0 0 0 0 0 0 0 0 0 0 0 0 0 0 0 0 0 0 0 0 0 0 0 0 0 0 0 0 0 0 0 0 0 0 0 0 0 0 0 0 0 0 0
0 0 0 0 0 0 0 0 0 0 0 0 0 0 0 0 0 0 0 0 0 0 0 0 0 0 0 0 0 0 0 0 0 0 0 0 0 0 0 0 0 0 0 0
0 0 0 0 0 0 0 0 0 0 0 0 0 0 0 0 0 0 0 0 0 0 0 0 0 0 0 0 0 0 0 0 0 0 0 0 0 0 0 0 0 0 0 0
0 0 0 0 0 0 0 0 0 0 0 0 0 0 0 0 0 0 0 0 0 0 0 0 0 0 0 0 0 0 0 0 0 0 0 0 0 0 0 0 0 0 0 0
-0 -0 -0 0 0 0 0 0 0 0 0 0 0 0 0 0 0 0 0 0 0 0 0 0 0 0 0 0 0 0 0 0 0 0 0 0 0 0 0 0 0 0 0 0
-0 -0 -0 -0 0 0 0 0 0 0 0 0 0 0 0 0 0 0 0 0 0 0 0 0 0 0 0 0 0 0 0 0 0 0 0 0 0 0 0 0 0 0 0 0
-0 -0 -0 -0 0 0 0 0 0 0 0 0 0 0 0 0 0 0 0 0 0 0 0 0 0 0 0 0 0 0 0 0 0 0 0 0 0 0 0 0 0 0 0 0
-0 -0 -0 -0 -0 0 0 0 0 0 0 0 0 0 0 0 0 0 -0 0 0 0 0 0 0 0 0 0 0 0 0 0 0 0 0 0 0 0 0 0 0 0 0 0
0 -0 -0 -0 0 0 0 0 0 0 0 0 0 0 0 0 0 0 -0 0 0 0 0 0 0 0 0 0 0 0 0 0 0 0 0 0 0 0 0 0 0 0 0 0
0 0 0 0 0 0 0 0 0 0 0 0 0 0 0 0 0 -0 0 0 0 0 0 0 0 0 0 0 0 0 0 0 0 0 0 0 0 0 0 0 0 0 0 0
0 0 0 0 0 0 0 0 0 0 0 0 0 0 0 0 0 -0 0 0 0 0 0 0 0 0 0 0 0 0 0 0 0 0 0 0 0 0 0 0 0 0 0 0
0 0 0 0 0 0 0 0 0 0 0 0 0 0 0 0 0 -0 0 0 0 0 0 0 0 0 0 0 0 0 0 0 0 0 0 0 0 0 0 0 0 0 0 0
0 0 0 0 0 0 0 0 0 0 0 0 0 0 0 0 0 0 0 0 0 0 0 0 0 0 0 0 0 0 0 0 0 0 0 0 0 0 0 0 0 0 0 0
0 0 0 0 0 0 0 0 0 0 0 0 0 0 0 0 0 0 0 0 0 0 0 0 0 0 0 0 0 0 0 0 0 0 0 0 0 0 0 0 0 0 0 0
Wind_Speed
6 6 4 5 6 4 3 4 6 7 6 8 9 10 10 9 8 8 8 8 8 7 7 6 5 4 3 3 2 2 1 1 2 2 2 2 1 1 1 1 2 2 2 2
5 4 4 5 6 5 5 5 6 7 7 7 9 8 9 9 9 9 9 10 9 8 8 7 6 5 4 3 3 2 1 2 2 2 2 2 1 1 1 1 1 1 2 2
5 5 3 4 4 4 3 3 3 4 7 10 10 11 10 9 9 9 9 10 9 8 7 7 6 5 5 4 3 2 2 2 2 2 2 2 2 1 1 1 1 1 2 2
3 3 3 2 2 3 3 3 4 4 8 9 10 11 7 6 8 9 11 10 9 8 7 7 6 6 4 3 3 2 2 2 3 2 2 2 2 1 1 1 1 2 2 2
1 3 5 2 5 5 4 4 5 7 10 11 11 8 5 8 9 9 10 10 8 7 7 6 6 6 5 4 3 3 3 3 3 3 3 3 3 2 1 1 1 1 1 2
1 2 4 3 7 7 1 2 7 9 11 12 11 7 7 12 13 12 11 9 8 8 7 6 6 5 5 4 4 4 4 4 4 3 3 3 3 2 1 1 1 1 1 1
2 3 4 4 8 5 2 5 10 10 10 10 7 7 11 14 13 11 10 10 9 8 7 6 6 5 5 4 5 5 4 4 4 3 3 3 2 2 1 1 1 1 1 1
1 2 4 5 5 3 4 7 8 9 9 10 10 11 12 12 12 11 11 10 10 8 8 7 5 5 5 5 5 5 4 3 3 3 2 1 1 1 1 1 1 1 0 1
3 4 3 2 2 3 4 7 7 8 10 10 11 12 13 12 11 10 10 9 9 8 8 7 5 5 5 6 5 4 4 3 3 3 2 1 1 1 1 0 1 1 1 1
3 4 3 4 3 4 6 7 8 9 9 10 11 12 12 11 11 10 10 9 8 8 8 8 7 6 6 6 5 4 4 4 3 2 2 2 1 1 1 1 1 1 1 1
4 5 5 3 3 6 8 9 9 10 9 10 11 12 11 11 11 10 10 8 7 7 8 8 7 6 6 5 4 4 4 3 3 2 2 2 2 1 1 1 2 2 2 2
4 4 4 7 7 7 8 10 10 10 11 10 9 11 11 11 10 9 9 8 8 8 8 8 8 7 6 6 4 3 3 3 2 2 1 1 1 2 3 1 1 0 1 1
5 5 6 8 7 6 7 9 10 10 10 11 10 9 10 10 9 9 9 8 8 8 8 8 7 7 6 6 4 3 3 3 2 2 1 1 1 0 1 3 4 4 3 3
4 4 5 5 6 7 8 9 9 9 8 9 9 10 9 9 9 9 9 9 8 8 7 7 7 7 6 5 4 4 3 3 2 1 1 1 1 0 0 1 2 3 4 6
3 4 5 7 7 7 7 8 9 9 10 10 9 9 10 10 10 9 9 8 7 7 7 7 7 7 6 6 5 4 3 2 2 1 1 1 1 1 2 2 2 2 3 4
6 5 5 6 7 8 8 8 9 10 10 10 10 10 10 9 9 8 8 7 7 8 8 7 7 7 6 6 5 3 3 4 3 2 1 2 2 2 2 2 2 2 2 2
4 5 6 8 8 9 8 8 8 9 9 10 11 11 10 9 9 8 8 7 6 7 7 7 7 7 6 5 4 3 2 3 4 2 2 2 2 2 2 2 2 2 2 3
4 5 6 6 7 9 9 9 8 9 9 10 10 9 9 9 9 9 8 7 6 7 7 7 7 6 6 6 4 3 2 2 2 2 2 2 2 2 2 2 2 2 2 3
4 5 5 6 6 7 7 8 8 8 9 8 9 9 8 7 8 8 7 6 6 7 8 7 10 7 6 6 6 2 2 2 2 2 2 2 3 2 2 2 2 2 2 2
4 5 5 6 6 6 7 7 8 8 8 8 8 8 8 8 7 7 6 5 4 5 7 8 7 6 5 5 6 2 2 2 2 2 2 2 2 2 2 2 2 2 2 2
5 5 6 6 7 7 7 7 7 8 8 7 7 8 8 8 7 6 5 5 6 6 7 8 6 5 4 5 5 2 2 2 2 1 1 1 1 1 1 2 2 2 2 2
4 5 6 6 6 7 7 6 6 7 7 7 7 7 7 8 7 6 5 4 5 9 7 4 4 6 7 6 3 3 2 2 2 1 1 1 1 1 1 1 1 1 1 1
4 5 5 5 6 7 7 6 6 6 7 7 7 7 7 6 5 5 6 5 5 9 6 4 7 10 10 5 3 3 3 2 2 2 1 1 1 1 1 1 1 1 1 1
4 4 5 5 5 5 6 7 6 6 6 6 6 6 6 5 4 3 4 8 10 9 5 7 10 10 9 4 3 3 3 2 2 2 1 1 1 1 1 1 1 1 1 1
4 4 4 4 4 5 6 6 6 6 6 5 6 6 4 3 4 5 5 5 9 8 5 7 10 9 6 3 3 3 2 2 2 2 1 1 1 1 1 1 1 1 1 1
3 3 3 4 4 4 4 4 4 5 5 6 5 5 4 4 4 4 4 5 6 8 5 4 5 6 4 3 3 3 2 3 3 2 2 2 2 1 1 1 2 1 1 1
3 3 3 3 4 4 4 4 4 5 5 5 6 5 5 5 5 5 5 4 5 5 4 4 4 4 4 3 3 3 3 2 2 2 2 2 1 1 2 2 2 2 1 2
Wind_Direction
263 282 287 294 306 310 270 257 257 280 289 310 322 324 321 327 334 339 341 342 339 337 336 337 335 335 331 326 328 320 312 289 275 281 274 268 276 277 268 247 236 222 225 229
281 272 276 295 315 305 289 290 282 294 293 311 323 331 334 339 344 341 339 337 336 335 336 336 333 327 325 319 319 313 288 282 285 285 280 261 255 268 272 261 244 218 225 226
279 306 317 301 329 321 319 325 311 297 306 329 336 337 335 335 338 335 333 333 330 326 326 326 325 321 315 311 317 325 307 298 291 283 280 273 262 247 238 238 228 230 232 225
287 336 267 258 360 344 324 348 356 333 330 333 325 316 314 331 337 333 330 328 327 326 325 325 325 324 320 317 314 316 314 303 296 282 278 279 267 253 250 232 221 229 239 239
271 278 276 316 348 342 313 312 360 342 333 334 332 322 317 349 343 327 322 321 321 321 323 322 325 325 326 322 318 315 308 301 295 286 278 269 259 249 250 235 240 247 244 237
224 260 272 298 323 320 282 301 358 349 339 339 345 343 321 338 335 327 327 329 328 329 333 329 326 329 329 321 316 306 301 297 296 288 275 262 254 249 253 237 240 240 259 256
237 249 269 320 325 347 40 314 332 334 331 331 326 298 300 316 321 325 328 330 333 334 335 329 330 334 330 319 306 304 306 304 302 292 276 262 260 257 235 228 219 236 258 282
238 252 271 341 7 28 304 310 320 324 325 321 314 310 312 317 321 326 328 331 334 333 332 331 336 335 327 317 313 317 316 312 308 303 291 277 253 273 242 192 183 210 231 293
215 236 273 326 316 305 318 317 320 321 320 320 316 315 317 320 322 323 324 326 329 329 328 331 333 335 325 322 328 331 331 325 323 318 316 306 252 246 261 214 192 222 214 234
276 275 298 310 312 323 321 313 312 312 312 315 312 313 316 319 321 322 324 323 325 327 328 329 330 330 324 324 330 337 332 330 328 327 328 333 303 241 213 209 204 213 219 225
274 291 312 301 316 318 318 318 319 319 316 315 314 313 314 315 317 317 318 321 323 323 322 325 326 325 328 328 332 337 330 327 330 332 329 336 338 315 257 231 211 207 211 201
256 273 283 289 302 315 316 317 319 319 320 321 317 312 314 313 313 314 316 318 321 322 323 325 325 324 331 332 331 333 330 331 332 330 329 340 358 4 14 15 29 54 142 155
260 285 276 282 299 312 310 312 315 316 314 316 317 314 313 312 314 318 319 319 316 316 318 323 325 327 333 332 329 328 324 321 316 318 321 328 340 20 17 30 43 56 76 86
279 297 295 301 306 313 313 312 312 313 314 315 315 317 317 315 317 321 320 318 316 316 319 323 325 326 330 332 333 334 331 329 328 315 316 326 339 345 60 82 57 46 50 62
302 297 282 294 305 314 318 321 325 326 326 325 323 322 322 320 318 317 317 320 323 325 328 331 330 330 335 337 338 338 335 338 339 340 359 13 33 53 62 63 70 63 51 47
305 305 302 308 314 319 324 327 326 322 323 322 324 324 321 316 314 316 321 329 331 329 330 332 331 332 337 339 340 342 345 350 353 4 28 42 52 60 64 62 60 62 53 40
311 313 317 317 317 318 318 316 313 313 316 317 318 318 319 320 322 324 325 328 325 323 327 331 330 333 338 340 341 340 346 352 4 18 32 43 52 58 61 65 63 59 48 41
269 280 289 293 300 307 312 315 315 315 315 313 317 321 324 326 325 322 322 326 332 335 336 335 335 339 345 346 346 351 356 4 17 28 33 38 42 48 55 56 56 57 45 38
293 293 296 300 300 301 305 309 312 313 314 318 323 324 321 320 320 320 324 332 338 334 334 337 341 349 348 348 351 359 9 18 23 26 31 39 44 46 49 50 47 45 45 44
301 305 308 309 310 308 307 309 312 314 318 322 323 324 325 324 324 325 328 327 325 321 325 336 343 345 345 344 351 4 17 25 31 31 37 46 48 47 47 45 43 41 41 41
303 309 312 313 312 312 311 313 315 316 319 323 323 322 321 322 326 329 331 328 331 336 338 344 349 344 344 345 351 15 23 23 30 38 41 45 44 43 45 40 34 30 32 34
301 306 309 312 314 315 317 317 316 317 320 323 323 324 325 328 331 329 327 321 331 339 345 344 344 346 349 354 8 15 17 23 22 23 33 36 35 30 31 34 30 19 22 30
299 303 307 310 311 310 315 319 321 321 322 323 324 325 323 321 324 328 329 333 335 338 344 342 343 348 354 7 13 18 16 15 12 11 14 17 10 9 22 26 21 14 12 13
303 306 307 310 314 318 322 324 325 324 322 320 324 326 326 328 329 328 318 327 337 338 343 341 346 350 0 12 9 9 7 5 3 2 5 9 5 3 7 6 3 355 350 348
305 304 309 319 321 316 316 320 322 323 326 327 331 334 333 327 321 323 328 331 337 343 344 342 346 351 1 0 1 358 355 354 351 356 1 360 352 350 345 338 329 321 320 315
307 306 304 303 303 309 315 319 322 325 327 328 331 332 332 332 328 327 331 335 337 340 344 340 342 346 348 347 348 345 344 341 347 353 352 342 338 340 337 333 324 315 306 299
315 315 317 319 320 320 319 319 319 321 323 323 323 326 330 333 335 336 336 336 337 340 339 340 342 343 342 343 342 342 340 340 339 337 334 328 321 315 310 304 299 295 291 284